Weather Roundup
Issued by NWS Chicago, IL

Home | Current Version | Previous Version | Graphics & Text | Print | Product List | Glossary On
Versions: 1 2 3 4 5 6 7 8 9 10 11 12 13 14 15 16 17 18 19 20 21 22 23 24 25 26 27 28 29 30 31 32 33 34 35 36 37 38 39 40 41 42 43 44 45 46 47 48 49 50
000
NZUS59 KLOT 102308
HRRLOT

CHICAGO AREA WEATHER ROUNDUP
NATIONAL WEATHER SERVICE CHICAGO/ROMEOVILLE IL
500 PM CST WED FEB 10 2016

NOTE: "FAIR" INDICATES FEW OR NO CLOUDS BELOW 12,000 FEET WITH NO
SIGNIFICANT WEATHER AND/OR OBSTRUCTIONS TO VISIBILITY.

* THESE STATIONS ARE NOT UNDER NWS QUALITY CONTROL. THEY ALSO MAY NOT
  REPORT WEATHER SUCH AS PRECIPITATION OR FOG.

ILZ005-006-012>014-019>023-110000-
NORTHEAST ILLINOIS

CITY           SKY/WX    TMP DP  RH WIND       PRES   REMARKS
OHARE          MOCLDY    16   2  54 NW12      30.05R WCI   3
MIDWAY         MOCLDY    17   1  49 NW10      30.06R WCI   5
AURORA         CLEAR     17   4  56 NW10      30.07R WCI   5
LANSING*       CLOUDY    18   3  52 NW7       30.06R WCI   8
JOLIET*        CLEAR     19   5  55 NW7       30.08R WCI   9
WAUKEGAN       MOCLDY    13   0  56 NW5       30.06R WCI   5
DUPAGE AIRPORT MOCLDY    15   2  56 N10       30.05R WCI   2
WHEELING       CLOUDY    15   1  53 NW10      30.07R WCI   2
KANKAKEE*      CLOUDY    19   6  57 NW9       30.08R WCI   7
MORRIS*        CLEAR     18   6  59 NW5       30.07R WCI  11
LEWIS AIRPORT* CLOUDY    17   4  58 NW10      30.07R WCI   4
$$

WIZ051-052-058>065-066-070>072-110000-
SOUTHEAST WISCONSIN

CITY           SKY/WX    TMP DP  RH WIND       PRES   REMARKS
MILWAUKEE      MOCLDY    13  -3  49 NW10      30.07R WCI   0
KENOSHA*       MOCLDY    13   0  56 NW7       30.06R WCI   3
RACINE*        MOCLDY    13  -3  49 W8G17     30.08R WCI   2
BURLINGTON     CLOUDY    11  -1  58 N9        30.06R WCI  -2
WAUKESHA       CLOUDY    10  -2  56 N9        30.05R WCI  -2
WEST BEND      CLEAR     12  -4  48 CALM      30.05R
$$

INZ001>003-010>013-019-020-110000-
NORTHWEST INDIANA

CITY           SKY/WX    TMP DP  RH WIND       PRES   REMARKS
GARY*          MOCLDY    19   1  45 W12       30.06R WCI   7
MICHIGAN CITY* NOT AVBL
RENSSELAER*    NOT AVBL
VALPARAISO     CLOUDY    15   7  70 NW7       30.05R WCI   5
$$

LMZ740>746-110000-
SOUTHERN LAKE MICHIGAN

STATION/POSITION TIME  SKY/WX   TEMP WIND        PRES    VSBY
                                AIR  DIR/SP/G
                 (UTC)          (F)  (DEG/KT/KT) (MB)    (MI)
HARRISON CRIB    2200            18  300/ 11/ 12   N/A
BURNHAM HARBOR   2300            18  320/  8/ 11   N/A
CALUMET HARBOR   2200            17  300/  6/ 11   N/A
BURNS HARBOR     2200            18  290/  9/ 14 1017.6R
MICHIGAN CITY    2200            17  270/ 15/ 17   N/A
$$

ABBREVIATIONS USED IN REMARKS
   TC - TEMPERATURE IN CELSIUS
  WCI - WIND CHILL INDEX
   HX - HEAT INDEX
  VSB - VISIBILITY
$$



USA.gov is the U.S. government's official web portal to all federal, state and local government web resources and services.